^^
Datos históricos de la estación: Murcia-Puente Tocinos
 
Diario Informe para Abril 16, 2021 Unidades:  Métrico    Ingés   Ambas
Diario Semanal Mensual Anual
  Actual: Máxima: Mínima: Promedio:
Temperatura: 10.5 °C 10.9 °C 10.4 °C 10.7 °C
Punto de rocio: 9.1 °C 9.7 °C 9.1 °C 9.5 °C
Humedad: 91% 94% 91% 92%
Velocidad viento: 6.5km/h 7.6km/h 3.2km/h 5.8km/h
Racha viento: 11.1km/h 14.8km/h - -
VientoSO - - SSO
Presión: 1014.9 hPa 1015.9 hPa 1014.9 hPa -
Precipitación: 0.0 mm      
 
 
Tabla de datos para Abril 16, 2021
Hora Temperatura Punto de rocio Presión Viento Velocidad viento Racha viento Humedad Intensidad lluvia(por hora) Nubes
00:04 10.4 °C 9.4 °C 1015.9 hPa SSO 7.6 km/h 14.8 km/h 93.3% 0.0 mm
00:09 10.4 °C 9.4 °C 1015.9 hPa Sur 7.6 km/h 14.5 km/h 93.7% 0.0 mm
00:14 10.4 °C 9.5 °C 1015.9 hPa SSE 7.6 km/h 11.1 km/h 94% 0.0 mm
00:19 10.5 °C 9.6 °C 1015.8 hPa Sur 7.6 km/h 11.3 km/h 94% 0.0 mm
00:24 10.5 °C 9.6 °C 1015.8 hPa Sur 7.6 km/h 11.9 km/h 94% 0.0 mm
00:29 10.4 °C 9.5 °C 1015.9 hPa Sur 7 km/h 13 km/h 94% 0.0 mm
00:34 10.4 °C 9.5 °C 1015.9 hPa Sur 6.9 km/h 13 km/h 94% 0.0 mm
00:39 10.4 °C 9.5 °C 1015.9 hPa Sur 7.4 km/h 11.3 km/h 94% 0.0 mm
00:44 10.4 °C 9.5 °C 1015.9 hPa SSE 7.6 km/h 11.1 km/h 94% 0.0 mm
00:49 10.4 °C 9.5 °C 1015.8 hPa Sur 7.2 km/h 11.3 km/h 94% 0.0 mm
00:54 10.4 °C 9.5 °C 1015.8 hPa SSE 6.9 km/h 11.3 km/h 94% 0.0 mm
00:59 10.4 °C 9.5 °C 1015.8 hPa Sur 6 km/h 11.1 km/h 94% 0.0 mm
01:04 10.4 °C 9.5 °C 1015.6 hPa Sur 5.8 km/h 11.3 km/h 94% 0.0 mm
01:09 10.4 °C 9.5 °C 1015.6 hPa Sur 7.2 km/h 11.3 km/h 94% 0.0 mm
01:14 10.4 °C 9.5 °C 1015.7 hPa Sur 7.6 km/h 11.3 km/h 93.8% 0.0 mm
01:19 10.4 °C 9.5 °C 1015.7 hPa SSO 6.8 km/h 9.7 km/h 93.9% 0.0 mm
01:24 10.5 °C 9.4 °C 1015.7 hPa Sur 6.5 km/h 9.5 km/h 93% 0.0 mm
01:29 10.5 °C 9.4 °C 1015.7 hPa SSO 5.9 km/h 7.6 km/h 93% 0.0 mm
01:34 10.6 °C 9.5 °C 1015.6 hPa SSO 5.8 km/h 4.7 km/h 93.2% 0.0 mm
01:39 10.6 °C 9.5 °C 1015.6 hPa SO 3.9 km/h 5.8 km/h 93% 0.0 mm
01:44 10.6 °C 9.5 °C 1015.7 hPa SSO 3.2 km/h 8.4 km/h 93% 0.0 mm
01:49 10.6 °C 9.5 °C 1015.7 hPa SSO 3.7 km/h 8 km/h 93% 0.0 mm
01:54 10.7 °C 9.6 °C 1015.7 hPa Sur 3.9 km/h 10 km/h 93% 0.0 mm
01:59 10.7 °C 9.6 °C 1015.7 hPa Sur 5.1 km/h 10 km/h 93% 0.0 mm
02:04 10.7 °C 9.6 °C 1015.6 hPa Sur 5.8 km/h 10 km/h 93% 0.0 mm
02:09 10.8 °C 9.7 °C 1015.6 hPa Sur 5.8 km/h 9.7 km/h 93% 0.0 mm
02:14 10.8 °C 9.7 °C 1015.6 hPa Sur 5.8 km/h 9.7 km/h 92.7% 0.0 mm
02:19 10.9 °C 9.7 °C 1015.6 hPa Sur 6.2 km/h 11.1 km/h 92% 0.0 mm
02:24 10.9 °C 9.7 °C 1015.6 hPa Sur 6.5 km/h 11.3 km/h 92% 0.0 mm
02:29 10.9 °C 9.7 °C 1015.6 hPa Sur 6.9 km/h 11.3 km/h 92% 0.0 mm
02:34 10.9 °C 9.7 °C 1015.4 hPa Sur 6.9 km/h 9.7 km/h 92% 0.0 mm
02:39 10.9 °C 9.7 °C 1015.4 hPa Sur 6.6 km/h 9.7 km/h 92% 0.0 mm
02:44 10.9 °C 9.7 °C 1015.4 hPa SSO 6.4 km/h 8.4 km/h 92% 0.0 mm
02:49 10.9 °C 9.7 °C 1015.4 hPa SSO 5.4 km/h 8 km/h 92% 0.0 mm
02:54 10.9 °C 9.7 °C 1015.4 hPa SSO 5 km/h 9.3 km/h 92% 0.0 mm
02:59 10.9 °C 9.7 °C 1015.4 hPa SSO 5 km/h 9.7 km/h 91.9% 0.0 mm
03:04 10.9 °C 9.5 °C 1015.3 hPa SSO 5 km/h 8 km/h 91.1% 0.0 mm
03:09 10.9 °C 9.5 °C 1015.3 hPa SO 4.8 km/h 8.4 km/h 91% 0.0 mm
03:14 10.9 °C 9.5 °C 1015.3 hPa SO 4.6 km/h 8.4 km/h 91% 0.0 mm
03:19 10.9 °C 9.5 °C 1015.2 hPa SO 4.8 km/h 8 km/h 91% 0.0 mm
03:24 10.9 °C 9.5 °C 1015.2 hPa SO 5 km/h 8 km/h 91% 0.0 mm
03:29 10.8 °C 9.5 °C 1015.2 hPa SO 4.3 km/h 8 km/h 91% 0.0 mm
03:34 10.8 °C 9.4 °C 1015.1 hPa SSO 3.9 km/h 8 km/h 91% 0.0 mm
03:39 10.8 °C 9.4 °C 1015.1 hPa Sur 4.4 km/h 8 km/h 91% 0.0 mm
03:44 10.8 °C 9.4 °C 1015.1 hPa SSO 4.6 km/h 8 km/h 91% 0.0 mm
03:49 10.8 °C 9.5 °C 1015.0 hPa SSO 3.5 km/h 8 km/h 91.5% 0.0 mm
03:54 10.8 °C 9.5 °C 1015.0 hPa SSO 3.2 km/h 8.4 km/h 91.5% 0.0 mm
03:59 10.8 °C 9.4 °C 1015.0 hPa SO 4.5 km/h 8.4 km/h 91.1% 0.0 mm
04:04 10.8 °C 9.3 °C 1014.9 hPa SO 5 km/h 9.7 km/h 91% 0.0 mm
04:09 10.7 °C 9.3 °C 1014.9 hPa SSO 5 km/h 7.6 km/h 91% 0.0 mm
04:14 10.7 °C 9.3 °C 1014.9 hPa SSO 5 km/h 8.4 km/h 91% 0.0 mm
04:19 10.7 °C 9.3 °C 1014.9 hPa Sur 5 km/h 10 km/h 91% 0.0 mm
04:24 10.7 °C 9.3 °C 1014.9 hPa SSO 5 km/h 11.1 km/h 91% 0.0 mm
04:29 10.7 °C 9.3 °C 1015.0 hPa SSO 5.9 km/h 11.3 km/h 91% 0.0 mm
04:34 10.7 °C 9.3 °C 1015.0 hPa SSO 6.9 km/h 11.1 km/h 91% 0.0 mm
04:39 10.6 °C 9.2 °C 1015.0 hPa SSO 6.9 km/h 11.1 km/h 91% 0.0 mm
04:44 10.6 °C 9.2 °C 1015.0 hPa SO 6.9 km/h 11.3 km/h 91% 0.0 mm
04:48 10.5 °C 9.1 °C 1014.9 hPa SO 6.5 km/h 11.1 km/h 91% 0.0 mm
Murcia-Puente Tocinos, España
Compliments of Weather Underground - 2.25 mb

La estación de MeteoMurcia.com, publica sus datos en los siguientes proyectos:

Weather Underground PWS IMURCIAP2 Meteoclimatic www.awekas.at

W3Counter
Web Analytics